AirNav   Phillips 66 Aviation Fuel
 
 1347 users online  

KREI Redlands Municipal Airport
Redlands, California, USA

GOING TO REDLANDS?


FAA INFORMATION EFFECTIVE 20 JUNE 2019

Location

FAA Identifier: REI
Lat/Long: 34-05-06.9000N / 117-08-47.0000W
34-05.115000N / 117-08.783333W
34.0852500 / -117.1463889
(estimated)
Elevation: 1574.4 ft. / 479.9 m (surveyed)
Variation: 14E (1995)
From city: 2 miles NE of REDLANDS, CA
Time zone: UTC -7 (UTC -8 during Standard Time)
Zip code: 92374

Airport Operations

Airport use: Open to the public
Activation date: 02/1947
Control tower: no
ARTCC: LOS ANGELES CENTER
FSS: RIVERSIDE FLIGHT SERVICE STATION
NOTAMs facility: RAL (NOTAM-D service available)
Attendance: 0800-1700
Pattern altitude: 2503.4 ft. MSL
TPA - 929 FOR FIXED WING ACFT, N SIDE OF RWY 08/26; 500 FOR HEL, S SIDE OF RWY 08/26.
Wind indicator: lighted
Segmented circle: yes
Lights: ACTVT REIL RWYS 08 & 26; PAPI RWY 08; MIRL RWY 08/26 - CTAF.
Beacon: white-green (lighted land airport)
Operates sunset to sunrise.

Airport Communications

CTAF/UNICOM: 123.05
SOCAL APPROACH: 127.0 ;(NORTH-NE)
SOCAL DEPARTURE: 127.0 ;(NORTH-NE)
CLASS C: 127.0 ;(NORTH-NE)
IC: 127.0 ;(NORTH-NE)
WX AWOS-3 at SBD (4 nm W): 124.175 (909-382-0067)
WX ASOS at RAL (17 nm SW): PHONE 951-352-4392
WX AWOS-3 at BNG (18 nm SE): 134.625 (951-922-4674)
WX AWOS-3 at L35 (18 nm NE): 135.925 (909-585-4033)
  • AUTOMATED UNICOM.
  • FOR CLNC DEL CALL SOCAL APCH (800) 448-3724.

Nearby radio navigation aids

VOR radial/distance  VOR name  Freq  Var
RALr049/(17.0)RIVERSIDE VOR112.4014E
HDFr352/(18.6)HOMELAND VOR113.4014E
PDZr047/21.5PARADISE VORTAC112.2015E
POMr074/31.8POMONA VORTAC110.4015E
VCVr144/32.8VICTORVILLE VOR/DME109.0514E
PSPr277/37.9PALM SPRINGS VORTAC115.5013E
ELBr036/38.1EL TORO VOR/DME117.2014E

 
NDB name  Hdg/Dist  Freq  Var  ID
PETIS067/11.139714ESB ... -...

Airport Services

Fuel available: 100LL
SELF SERVE 100LL FUEL AVBL 24-7.
Parking: tiedowns
Airframe service: MAJOR
Powerplant service: MAJOR
Bottled oxygen: NONE
Bulk oxygen: HIGH/LOW

Runway Information

Runway 8/26

Dimensions: 4504 x 75 ft. / 1373 x 23 m
Surface: asphalt, in good condition
Weight bearing capacity: 
Single wheel: 12.5
Runway edge lights: medium intensity
RUNWAY 8  RUNWAY 26
Latitude: 34-05.113665N34-05.118037N
Longitude: 117-09.228998W117-08.336917W
Elevation: 1471.7 ft.1574.4 ft.
Traffic pattern: leftright
Runway heading: 076 magnetic, 090 true256 magnetic, 270 true
Markings: basic, in good conditionbasic, in fair condition
Visual slope indicator: 2-light PAPI on left (3.00 degrees glide path)
Runway end identifier lights: yesyes
Touchdown point: yes, no lightsyes, no lights
Obstructions: 4 ft. fence, 300 ft. from runway, 125 ft. left of centerline, 25:1 slope to clear60 ft. trees, 1500 ft. from runway, 120 ft. left of centerline, 22:1 slope to clear

Airport Ownership and Management from official FAA records

Ownership: Publicly-owned
Owner: CITY OF REDLANDS
35 CAJON STREET, SUITE 15A
REDLANDS, CA 92374
Phone 909-798-7668
Manager: RICK CROSS
35 CAJON STREET, SUITE 222
REDLANDS, CA 92373
Phone 909-798-7655
MAIN NO: 909-798-7655

Airport Operational Statistics

Aircraft based on the field: 230
Single engine airplanes: 205
Multi engine airplanes: 10
Jet airplanes: 2
Helicopters: 10
Gliders airplanes: 2
Ultralights: 1
    
Aircraft operations: avg 120/day *
75% local general aviation
25% transient general aviation
* for 12-month period ending 31 December 2016

Additional Remarks

HEL ACTVTY AVOID NOISE SENSITIVE AREAS S OF ARPT.
AEROBATIC ACTVTY NE OF ARPT FROM 1500 FT AGL TO 7500 FT MSL; SEE SPECIAL NOTICE - AEROBATIC OPERATIONS NORTHEAST OF REDLANDS, CA.
COYOTES AND WATERFOWL ON AND INVOF ARPT.

Instrument Procedures

NOTE: All procedures below are presented as PDF files. If you need a reader for these files, you should download the free Adobe Reader.

NOT FOR NAVIGATION. Please procure official charts for flight.
FAA instrument procedures published for use from 20 June 2019 at 0901Z to 19 July 2019 at 0900Z.

 
IAPs - Instrument Approach Procedures
RNAV (GPS)-A   download (329KB)
NOTE: Special Take-Off Minimums/Departure Procedures apply   download (132KB)

Other nearby airports with instrument procedures:

KSBD - San Bernardino International Airport (4 nm W)
KRIV - March Air Reserve Base (13 nm SW)
KRIR - Flabob Airport (14 nm SW)
KRAL - Riverside Municipal Airport (17 nm SW)
L35 - Big Bear City Airport (18 nm NE)
 
Loc | Ops | Rwys | IFR | FBO | Links
Com | Nav | Svcs | Stats | Notes

San Bernardino International Airport Authority
 
Area around KREI (Redlands Municipal Airport)
 
Road maps at: MapQuest Bing Google
 
Aerial photo
WARNING: Photo may not be current or correct
Aerial photo of KREI (Redlands Municipal Airport)
Photo courtesy of Steve Bastuba of Skyview Aerial Photo, Inc.
Photo taken 31-Oct-2013
looking west.

Do you have a better or more recent aerial photo of Redlands Municipal Airport that you would like to share? If so, please send us your photo.

 
Sectional chart

 
Airport distance calculator
Flying to Redlands Municipal Airport? Find the distance to fly.

From to KREI

Sunrise and sunset
Times for 20-Jun-2019
 Local
(UTC-7)
 Zulu
(UTC)
Morning civil twilight05:0912:09
Sunrise05:3812:38
Sunset20:0203:02
Evening civil twilight20:3103:31

Current date and time
Zulu (UTC)  20-Jun-2019 20:55:06
Local (UTC-7)  20-Jun-2019 13:55:06
 
METAR
KREI SuperAWOS
201955Z AUTO 29005KT 10SM 24/13 A2995
KSBD 
4nm W 
201950Z 00000KT 4SM HZ FEW040 24/12 A2995
KRIV 
14nm SW 
201958Z AUTO 30003KT 10SM FEW120 SCT140 SCT170 BKN200 24/15 A2995 RMK AO2 SLP132 T02420151
KRAL 
17nm SW 
201953Z 30008KT 7SM SCT025 23/14 A2995 RMK AO2 SLP128 T02330144
KL35 
18nm NE 
202035Z AUTO 24009G15KT 224V284 10SM CLR 22/02 A3012 RMK AO2
TAF
KSBD 
4nm W 
201734Z 2018/2118 VRB03KT 3SM HZ SCT015 FM202100 25011KT P6SM FEW250 FM210500 VRB04KT P6SM SCT018 FM210700 VRB03KT P6SM OVC013
KRIV 
14nm SW 
202013Z 2020/2202 31009KT 9999 FEW030 FEW100 QNH2987INS TEMPO 2022/2101 31012G20KT BECMG 2105/2106 30006KT 9000 BR OVC008 QNH2990INS BECMG 2109/2110 17006KT 8000 BR OVC006 QNH2991INS BECMG 2111/2112 15006KT 4800 -DZ BR OVC005 QNH2992INS BECMG 2115/2116 15009KT 8000 BR OVC008 QNH2993INS BECMG 2116/2117 15009KT 9999 NSW OVC010 QNH2992INS BECMG 2117/2118 17009KT 9999 BKN020 QNH2991INS BECMG 2118/2119 31009KT 9999 BKN025 QNH2984INS TEMPO 2121/2201 31012G18KT TX25/2022Z TN14/2110Z
NOTAMs
Click for the latest NOTAMs
NOTAMs are issued by the DoD/FAA and will open in a separate window not controlled by AirNav.

 

 
 

FBO, Fuel Providers, and Aircraft Ground Support

  
 Business Name 
 
 Contact 
 
 Services / Description 
 
Fuel Prices
 
Comments
  
Redlands Aviation 909-794-5642
no information available

If you are affiliated with Redlands Aviation and would like to show here your services, contact info, web link, logo, and more, click here
100LL
SS $4.79 
 Updated 10-Jun-2019
 
   1 read write
SS=Self service
Update Fuel Prices
 

Would you like to see your business listed on this page?

 If your business provides an interesting product or service to pilots, flight crews, aircraft, or users of the Redlands Municipal Airport, you should consider listing it here.  To start the listing process, click on the button below
 
Add a business
 

Other Pages about Redlands Municipal Airport

www.ci.redlands.ca.us/...
 
Update a link
 
Copyright © AirNav, LLC. All rights reserved. Privacy Policy  Contact